Regional Weather Roundup
Issued by NWS

Home | Current Version | Previous Version | Graphics & Text | Print | Product List | Glossary On
Versions: 1 2 3 4 5 6 7 8 9 10 11 12 13 14 15 16 17 18 19 20 21 22 23 24 25 26 27 28 29 30 31 32 33 34 35 36 37 38 39 40 41 42 43 44 45 46 47 48 49 50
000
ASUS43 KDTX 310501
RWRMI
MICHIGAN HOURLY REGIONAL WEATHER ROUNDUP
NATIONAL WEATHER SERVICE DETROIT/PONTIAC MI
100 AM EDT WED AUG 31 2016

NOTE: "FAIR" INDICATES FEW OR NO CLOUDS BELOW 12,000 FEET WITH NO
SIGNIFICANT WEATHER AND/OR OBSTRUCTION TO VISIBILITY.

MIZ047>049-052>055-059>063-066>070-074>076-081>083-310600-
SOUTHEAST LOWER MICHIGAN

CITY           SKY/WX    TMP DP  RH WIND       PRES   REMARKS
ADRIAN         CLOUDY    70  69  97 W5        30.05F
ALMA           CLOUDY    71  71 100 W5        30.04F FOG
ANN ARBOR      MOCLDY    68  68 100 SW3       30.04S
BAD AXE        CLOUDY    66  65  97 NW3       30.03R
CARO           CLOUDY    70  70  99 CALM      30.01F FOG
DETROIT CITY   CLOUDY    75  68  78 W5        30.02F
DETROIT        CLOUDY    73  68  84 W3        30.04S
FLINT          CLOUDY    72  69  90 SW6       30.03F
GROSSE ILE     CLOUDY    73  68  86 NW3       30.02S
HILLSDALE      CLOUDY    69  67  94 SW5       30.06S
HOWELL         CLOUDY    72  68  89 W3        30.05S

CITY           SKY/WX    TMP DP  RH WIND       PRES   REMARKS
JACKSON        CLOUDY    70  69  97 SW7       30.05F
LAMBERTVILLE   CLOUDY    72  70  93 CALM      30.03F
LANSING        CLOUDY    71  68  90 W6        30.05S
LAPEER         FAIR      70  69  97 CALM      30.03S
MASON          CLOUDY    71  67  88 CALM      30.05S
MONROE         MOCLDY    70  70  98 W8        30.03S
MT. CLEMENS    CLOUDY    73  66  79 SW3       30.00F
PONTIAC        CLOUDY    73  69  87 W7        30.03S
PORT HOPE        N/A     69  66  90 W5        30.00S
PORT HURON     CLOUDY    66  64  94 CALM      30.02S
TRI CITIES     CLOUDY    71  70  96 W10       30.02F
MIDLAND        FAIR      70  69  96 CALM      30.02S
TROY           CLOUDY    76  66  70 W5        30.05S
SAGINAW HB     MOCLDY    72  68  88 SW6       30.01S
$$
MIZ043>046-050>051-056>058-064>065-071>073-077>080-310600-
SOUTHWEST LOWER MICHIGAN

CITY           SKY/WX    TMP DP  RH WIND       PRES   REMARKS
BATTLE CREEK   CLOUDY    68  68 100 SW5       30.06F
BENTON HARBOR  CLOUDY    72  70  93 CALM      30.04F FOG
BIG RAPIDS     PTCLDY    71  70  96 CALM      30.05S FOG
COLDWATER      CLOUDY    68  68 100 CALM      30.06F FOG
FREMONT        FOG       67  66  97 CALM      30.04S VSB<1/4
HOLLAND        CLOUDY    72  70  93 CALM      30.05S
GRAND RAPIDS   CLOUDY    73  69  87 W6        30.05S
IONIA          MOCLDY    71  69  93 W5        30.04S
KALAMAZOO      CLOUDY    72  67  84 CALM      30.05F
LUDINGTON      CLOUDY    69  69 100 NE3       30.04R FOG
MARSHALL       CLOUDY    70  69  98 W5        30.06S
MOUNT PLEASANT CLOUDY    72  71  96 W3        30.03S
MUSKEGON       PTCLDY    70  68  93 CALM      30.04S
SOUTH HAVEN    CLOUDY    72  72  99 CALM      30.05S FOG
$$
MIZ016>042-310600-
NORTHERN LOWER MICHIGAN

CITY           SKY/WX    TMP DP  RH WIND       PRES   REMARKS
ALPENA         CLOUDY    59  55  87 W5        30.04F
BEAVER ISLAND  CLEAR     62  54  74 N3        30.09R
BELLAIRE       CLOUDY    66  60  79 N5        30.08R
CADILLAC       CLOUDY    68  66  92 N10       30.07R
CHARLEVOIX     PTCLDY    66  54  63 N8        30.12R
FRANKFORT      CLOUDY    67  60  75 N5        30.07R
GAYLORD        MOCLDY    67  60  78 CALM      30.08S
GRAYLING       CLOUDY    68  63  86 NW6       30.08S
HARBOR SPRINGS MOCLDY    63  55  75 CALM      30.08S
HOUGHTON LAKE  CLEAR     68  65  90 N7        30.06F
MANISTEE       TSTM      68  66  93 NE9       30.04R
OSCODA         CLEAR     67  66  97 NW10      30.02S
PELLSTON       CLEAR     55  53  93 CALM      30.08S
ROGERS CITY    PTCLDY    62  58  89 W3        30.06S
TRAVERSE CITY  CLOUDY    71  55  56 N10       30.06R
$$
MIZ007>008-015-310600-
EASTERN UPPER MICHIGAN

CITY           SKY/WX    TMP DP  RH WIND       PRES   REMARKS
KINROSS        CLEAR     55  54  96 W6        30.05S
MACKINAC ISLAN CLEAR     59  55  84 NW6       30.06F
NEWBERRY       CLEAR     57  55  92 NW7       30.07S
S. S. MARIE    CLEAR     62  58  86 NW7       30.03S
MUNISING         N/A     65  60  84 NW10      30.09R
$$
MIZ004>006-011>014-085-310600-
CENTRAL UPPER MICHIGAN

CITY           SKY/WX    TMP DP  RH WIND       PRES   REMARKS
ESCANABA       CLEAR     53  53 100 W3        30.11R
MENOMINEE      PTCLDY   N/A N/A N/A N3        30.12R
SAWYER-GWINN   CLEAR     52  48  88 CALM      30.12R
$$
MIZ001>003-009>011-084-310600-
WESTERN UPPER MICHIGAN

CITY           SKY/WX    TMP DP  RH WIND       PRES   REMARKS
IRON MOUNTAIN  CLEAR     54  50  86 CALM      30.13R
HOUGHTON       CLEAR     57  54  89 NW7       30.11S
COPPER HARBOR    N/A     63  60  90 N3        30.09S
IRONWOOD       CLEAR     52  52 100 CALM      30.16S
$$

ABBREVIATIONS USED IN REMARKS
   TC - TEMPERATURE IN CELSIUS
  WCI - WIND CHILL INDEX
   HX - HEAT INDEX
  VSB - VISIBILITY





USA.gov is the U.S. government's official web portal to all federal, state and local government web resources and services.